WetterOnline ( https://www.wetteronline.de )

Wetter aktuell Ulm

Aktuelles Wetter: Ulm-Mähringen (592m)

6-stündlich | Neueste Meldungen
Ortszeit Temperatur Wetter
Do, 29.09. 8:00 5.6° C Nebel
Do, 29.09. 2:00 5.6° C bedeckt
Mi, 28.09. 20:00 7.1° C wolkig
Mi, 28.09. 14:00 9.0° C bewölkt
Mi, 28.09. 8:00 7.9° C Sprühregen
Mi, 28.09. 2:00 7.4° C Regen
Di, 27.09. 20:00 7.0° C bedeckt
Di, 27.09. 14:00 9.5° C leicht bewölkt
Ortszeit Temperatur Wetter
Do, 29.09. 13:30 9.6° C bedeckt
Do, 29.09. 13:20 9.6° C bedeckt
Do, 29.09. 13:10 9.6° C bedeckt
Do, 29.09. 13:00 9.2° C Sprühregen
Do, 29.09. 12:50 9.2° C Sprühregen
Do, 29.09. 12:40 9.3° C leichter Regen
Do, 29.09. 12:30 8.9° C bedeckt
Do, 29.09. 12:00 8.3° C Sprühregen
Do, 29.09. 11:30 8.3° C Sprühregen
Do, 29.09. 11:00 8.0° C Sprühregen
Do, 29.09. 10:30 7.9° C Sprühregen
Ortszeit Relative Feuchte Sichtweite
Do, 29.09. 8:00 99% 0.9 km
Do, 29.09. 2:00 96% 26 km
Mi, 28.09. 20:00 90% 55 km
Mi, 28.09. 14:00 80% >70 km
Mi, 28.09. 8:00 94% 21 km
Mi, 28.09. 2:00 95% 40 km
Di, 27.09. 20:00 84% >70 km
Di, 27.09. 14:00 76% >70 km
Ortszeit Relative Feuchte Sichtweite
Do, 29.09. 13:30 77% 55 km
Do, 29.09. 13:20 77% -
Do, 29.09. 13:10 79% -
Do, 29.09. 13:00 79% 30 km
Do, 29.09. 12:50 79% -
Do, 29.09. 12:40 82% -
Do, 29.09. 12:30 81% 30 km
Do, 29.09. 12:00 88% 17 km
Do, 29.09. 11:30 87% 19 km
Do, 29.09. 11:00 87% 15 km
Do, 29.09. 10:30 88% 13 km
Ortszeit Niederschlagsmenge Niederschlagsart
Do, 29.09. 8:00 0.0 l/m2 in 12 Std. -
Do, 29.09. 2:00 0.0 l/m2 in 6 Std. -
Mi, 28.09. 20:00 4 l/m2 in 12 Std. -
Mi, 28.09. 14:00 4 l/m2 in 6 Std. Regen
Mi, 28.09. 8:00 4 l/m2 in 12 Std. Regen
Mi, 28.09. 2:00 3 l/m2 in 6 Std. Regen
Di, 27.09. 20:00 4 l/m2 in 12 Std. Regen
Di, 27.09. 14:00 2 l/m2 in 6 Std. Regen
Ortszeit Niederschlagsmenge Niederschlagsart
Do, 29.09. 13:30 <0.05 l/m2 in 1 Std. Schneeregen
Do, 29.09. 13:20 keine Meldung -
Do, 29.09. 13:10 keine Meldung -
Do, 29.09. 13:00 <0.05 l/m2 in 1 Std. Regen
Do, 29.09. 12:50 keine Meldung -
Do, 29.09. 12:40 keine Meldung -
Do, 29.09. 12:30 <0.05 l/m2 in 1 Std. Schnee
Do, 29.09. 12:00 <0.05 l/m2 in 1 Std. Regen
Do, 29.09. 11:30 <0.05 l/m2 in 1 Std. -
Do, 29.09. 11:00 <0.05 l/m2 in 1 Std. Regen
Do, 29.09. 10:30 <0.05 l/m2 in 1 Std. -
Ortszeit Stärke Spitze Richtung
km/h Bft. km/h Grad Sektor
Do, 29.09. 8:00 0 0 7 - -
Do, 29.09. 2:00 7 2 11 210° SW
Mi, 28.09. 20:00 9 2 24 250° W
Mi, 28.09. 14:00 9 2 33 250° W
Mi, 28.09. 8:00 14 3 40 220° SW
Mi, 28.09. 2:00 13 3 30 220° SW
Di, 27.09. 20:00 14 3 54 240° SW
Di, 27.09. 14:00 18 3 43 240° SW
Ortszeit Stärke Spitze Richtung
km/h Bft. km/h Grad Sektor
Do, 29.09. 13:30 7 2 11 160° S
Do, 29.09. 13:20 7 2 - 160° S
Do, 29.09. 13:10 7 2 - 180° S
Do, 29.09. 13:00 7 2 11 150° SO
Do, 29.09. 12:50 7 2 - 150° SO
Do, 29.09. 12:40 6 1 - 160° S
Do, 29.09. 12:30 7 2 11 180° S
Do, 29.09. 12:00 7 2 11 110° O
Do, 29.09. 11:30 4 1 7 170° S
Do, 29.09. 11:00 2 1 6 120° SO
Do, 29.09. 10:30 0 0 7 - -
Ortszeit Untergrenze Bedeckung Gattung
total tief tief mittel hoch
Do, 29.09. 8:00 30 m 8/8 8/8 - - -
Do, 29.09. 2:00 2400 m 8/8 8/8 - - -
Mi, 28.09. 20:00 1800 m 8/8 2/8 - - -
Mi, 28.09. 14:00 540 m 8/8 7/8 - - -
Mi, 28.09. 8:00 270 m 8/8 8/8 - - -
Mi, 28.09. 2:00 240 m 8/8 8/8 - - -
Di, 27.09. 20:00 990 m 8/8 8/8 - - -
Di, 27.09. 14:00 510 m 6/8 1/8 - - -
Ortszeit Bedeckungsgrad in Achtel und Wolkenuntergrenze
Do, 29.09. 13:30 4(450m) 8(2400m) 8(3300m)
Do, 29.09. 13:20 4(450m) 8(2400m) 8(3300m)
Do, 29.09. 13:10 8
Do, 29.09. 13:00 6(390m) 8(1800m) 8(3600m)
Do, 29.09. 12:50 6(390m) 8(1800m) 8(3600m)
Do, 29.09. 12:40 8
Do, 29.09. 12:30 5(270m) 8(2400m) 8(3600m)
Do, 29.09. 12:00 6(270m) 7(450m) 8(2400m)
Do, 29.09. 11:30 6(240m) 7(390m)
Do, 29.09. 11:00 2(120m) 7(360m) 8(1200m)
Do, 29.09. 10:30 2(90m) 8(330m) 8(1290m)
Ortszeit Luftdruck NN (hPa) Tendenz (hPa in 3 Std.)
Do, 29.09. 8:00 1003 + 0,2
Do, 29.09. 2:00 1003 - 0,3
Mi, 28.09. 20:00 1001 + 0,4
Mi, 28.09. 14:00 1000 + 0,7
Mi, 28.09. 8:00 997 - 1,5
Mi, 28.09. 2:00 1002 - 1,9
Di, 27.09. 20:00 1004 + 0,5
Di, 27.09. 14:00 1003 - 0,2
Ortszeit Luftdruck NN (hPa) Tendenz (hPa in 3 Std.)
Do, 29.09. 13:30 1003 + 1,0
Do, 29.09. 13:20 1003 keine Meldung
Do, 29.09. 13:10 1003 keine Meldung
Do, 29.09. 13:00 1003 + 0,8
Do, 29.09. 12:50 1003 keine Meldung
Do, 29.09. 12:40 1003 keine Meldung
Do, 29.09. 12:30 1003 + 0,7
Do, 29.09. 12:00 1003 + 0,8
Do, 29.09. 11:30 1003 + 0,8
Do, 29.09. 11:00 1003 + 0,8
Do, 29.09. 10:30 1003 + 0,5
Ortszeit Schneehöhe (cm)
Do, 29.09. 8:00 0
Do, 29.09. 2:00 0
Mi, 28.09. 20:00 0
Mi, 28.09. 14:00 0
Mi, 28.09. 8:00 0
Mi, 28.09. 2:00 0
Di, 27.09. 20:00 0
Di, 27.09. 14:00 0
Ortszeit Schneehöhe (cm)
Do, 29.09. 13:30 0
Do, 29.09. 13:20 0
Do, 29.09. 13:10 0
Do, 29.09. 13:00 0
Do, 29.09. 12:50 0
Do, 29.09. 12:40 0
Do, 29.09. 12:30 0
Do, 29.09. 12:00 0
Do, 29.09. 11:30 0
Do, 29.09. 11:00 0
Do, 29.09. 10:30 0
Link zu dieser Seite / Seite empfehlen

Das Wetter in ...